Regional Weather Roundup
Issued by NWS

Home | Current Version | Previous Version | Text Only | Print | Product List | Glossary On
Versions: 1 2 3 4 5 6 7 8 9 10 11 12 13 14 15 16 17 18 19 20 21 22 23 24 25 26 27 28 29 30 31 32 33 34 35 36 37 38 39 40 41 42 43 44 45 46 47 48 49 50
000
ASUS44 KFWD 232201
RWRTX
NORTH TEXAS HOURLY WEATHER ROUNDUP
NATIONAL WEATHER SERVICE FORT WORTH TX
500 PM CDT WED AUG 23 2017

NOTE: "FAIR" INDICATES FEW OR NO CLOUDS BELOW 12,000 FEET WITH NO
SIGNIFICANT WEATHER AND/OR OBSTRUCTIONS TO VISIBILITY.

TXZ118-119-232300-
DALLAS/FORT WORTH METROPLEX

CITY           SKY/WX    TMP DP  RH WIND       PRES   REMARKS
DFW AIRPORT    PTSUNNY   90  70  51 VRB5      29.92F HX  95
DALLAS LOVE    CLOUDY    90  69  50 NE6       29.92F HX  94
FTW MEACHAM    PTSUNNY   92  71  50 N8        29.92F HX  98
DAL-EXECUTIVE  MOSUNNY   89  69  51 E8        29.92F HX  93
FTW-ALLIANCE   PTSUNNY   87  70  56 N10       29.93F HX  92
FTW-NAS-JRB    MOSUNNY   91  69  48 VRB5      29.93F HX  96
FTW-SPINKS     MOSUNNY   91  68  46 NE6       29.94F HX  95
ARLINGTON      MOSUNNY   89  71  55 N10       29.92F HX  95
GRAND PRAIRIE  MOSUNNY   88  66  48 N9        29.93F HX  90
ADDISON        MOSUNNY   88  70  55 NE5       29.94F HX  92
MESQUITE       MOSUNNY   90  70  51 N7        29.93  HX  95
LANCASTER      SUNNY     89  68  49 NE6       29.93F HX  93
$$

TXZ091>094-102>105-117-120-121-131>134-232300-
NORTH CENTRAL TEXAS

CITY           SKY/WX    TMP DP  RH WIND       PRES   REMARKS
SHRMAN/DENISON MOSUNNY   84  72  67 E3        29.97F HX  90
GAINESVILLE    SUNNY     86  69  56 NE7       29.98F HX  90
BOWIE          CLOUDY    81  73  77 CALM      29.97F
BRIDGEPORT     CLOUDY    86  70  58 N7        29.97F HX  90
DECATUR        RAIN      74  72  93 NE6         N/A
DENTON         CLOUDY    82  71  69 N10       29.94F
MCKINNEY       LGT RAIN  81  76  84 NE6       29.94F
BONHAM         CLOUDY    79  70  73 NE5       29.96F
ROCKWALL       CLOUDY    85  72  63 N6        29.93F HX  91
TERRELL        CLOUDY    90  71  53 N9        29.92F HX  96
WAXAHACHIE     MOSUNNY   89  71  54 N6        29.93F HX  94
CLEBURNE       SUNNY     90  68  48 VRB7      29.94F HX  93
GRANBURY       MOSUNNY   88  71  57 N3        29.95F HX  94
$$

TXZ083>090-098>101-113>116-127>130-139>142-154-155-232300-
WESTERN NORTH TEXAS

CITY           SKY/WX    TMP DP  RH WIND       PRES   REMARKS
WICHITA FALLS  PTSUNNY   86  69  56 NE14      29.96F HX  90
WF-KICKAPOO    PTSUNNY   87  70  57 NE8       29.98F HX  91
VERNON         CLOUDY    86  62  44 E8        30.00F
ABILENE        LGT RAIN  80  73  79 E14G20    30.00F
ABILENE-DYESS  MOSUNNY   89  70  53 E10       29.98F HX  93
BRECKENRIDGE   PTSUNNY   88  68  50 NE14      29.97F HX  92
CISCO          CLOUDY    82  72  69 S5        30.00F
EASTLAND       PTSUNNY   84  70  63 NE9       29.97F
RANGER         MOSUNNY   86  71  60 NE7       29.97F HX  91
MINERAL WELLS  RAIN      76  71  85 N3        29.95S
STEPHENVILLE   MOSUNNY   86  71  59 N8        29.99F HX  91
COMANCHE       PTSUNNY   85  70  61 CALM        N/A
BROWNWOOD      CLOUDY    72  72 100 NE5       29.98F
COLEMAN        CLOUDY    86  66  50 E12       29.99F
$$

TXZ143>147-156>162-174-175-232300-
CENTRAL TEXAS

CITY           SKY/WX    TMP DP  RH WIND       PRES   REMARKS
WACO           CLOUDY    92  69  47 N16       29.88  HX  97
WACO-MCGREGOR  CLOUDY    92  70  48 N16       29.89F HX  97
HILLSBORO      MOSUNNY   90  69  51 N7        29.91F HX  94
CORSICANA      SUNNY     94  72  48 N13       29.89F HX 102
MEXIA          CLOUDY    89  70  53 S9G16     29.87F THUNDER HX  93
CAMERON        MOSUNNY   89  69  51 N14       29.87R THUNDER HX  94
TEMPLE         CLOUDY    85  70  60 S20       29.91R THUNDER
KILLEEN        RAIN      75  70  83 W10       29.91F
KILLEEN-SKYLRK TSTM      80  71  74 SW12G26   29.91
FORT HOOD      TSTM     N/A N/A N/A SW14G23   29.88S
GATESVILLE     CLOUDY    90  70  51 NE7G15    29.92F HX  95
HAMILTON       MOSUNNY   91  68  47 NE10      29.96F HX  94
LAMPASAS       RAIN      78  74  88 NW3       29.94S
$$

TXZ095>097-106>112-122>126-135>138-148>153-164>167-232300-
EAST TEXAS

CITY           SKY/WX    TMP DP  RH WIND       PRES   REMARKS
PARIS          CLOUDY    82  73  74 N7        29.96F
SULPHUR SPRNGS SUNNY     87  71  59 NE9G17    29.96S HX  92
GILMER         TSTM      73  69  85 NW10G24   29.94R VSB 1/2
MINEOLA        PTSUNNY   88  75  66 N12       29.91F HX  97
TYLER          LGT RAIN  89  74  60 NW7       29.89F HX  98
LONGVIEW       CLOUDY    92  74  55 E7        29.87F HX 101
MARSHALL         N/A     89  73  59 NE5       29.91F HX  97
ATHENS         MOSUNNY   90  72  55 NE7       29.88F HX  96
PALESTINE      PTSUNNY   93  72  49 E7        29.88F HX 101
JACKSONVILLE   SUNNY     93  71  48 NE6       29.91F HX  99
HENDERSON      CLOUDY    93  72  49 E6        29.89F HX 100
CENTER         PTCLDY    96  74  50 E6        29.89F HX 107
NACOGDOCHES    MOSUNNY   94  73  50 VRB5      29.87F HX 103
LUFKIN         PTSUNNY   89  73  59 S5        29.87S THUNDER HX  97
$$

SUPPLEMENTAL OBSERVATIONS (NWS FORT WORTH AREA)

CITY           SKY/WX    TMP DP  RH WIND       PRES   REMARKS
$$

SUPPLEMENTAL OBSERVATIONS (NWS NORMAN AREA)

CITY           SKY/WX    TMP DP  RH WIND       PRES   REMARKS
GOODLETT         N/A     83  67  58 N10       30.02F
ODELL            N/A     85  71  61 N9        30.02F HX  90
CROWELL          N/A     84  70  62 NE9       30.01F
KNOX CITY        N/A     85  65  52 N9        30.01F
SEYMOUR          N/A     87  68  53 N7        30.00F HX  91
$$

SUPPLEMENTAL OBSERVATIONS (NWS SAN ANGELO AREA)

CITY           SKY/WX    TMP DP  RH WIND       PRES   REMARKS
WEINERT          N/A     85  69  57 N10       30.01F
HASKELL          N/A     84  66  55 N8        30.01F
THROCKMORTON     N/A     86  70  58 NE7       30.00F HX  90
STAMFORD         N/A     85  69  58 N8        30.01F
CLYDE            N/A     83  70  63 E5        30.02F
$$

SUPPLEMENTAL OBSERVATIONS (NWS SHREVEPORT AREA)

CITY           SKY/WX    TMP DP  RH WIND       PRES   REMARKS
$$

SUPPLEMENTAL OBSERVATIONS ARE A COLLECTION OF AUTOMATED INSTRUMENTS
THAT ARE MAINTAINED BY A VARIETY OF FEDERAL AND STATE AGENCIES.
CERTAIN ELEMENTS...SUCH AS HUMIDITY VALUES AND SUSTAINED WIND
SPEEDS...MAY BE APPROXIMATED.





USA.gov is the U.S. government's official web portal to all federal, state and local government web resources and services.